| time (UTC) | temp C | wind direction | speed KPH | gust KPH | rain 1hr cm | rain 24hr cm | rain mn cm | humidity % | barometer mb |
| 20260507160030 | 15 | 265 | 1.6 | 6.4 | 0.00 | 0.76 | 0.56 | 45 | 1011.7 |
| 20260507154534 | 15 | 63 | 1.6 | 8.0 | 0.00 | 0.76 | 0.56 | 43 | 1011.7 |
| 20260507153037 | 15 | 309 | 0.0 | 4.8 | 0.00 | 0.76 | 0.56 | 49 | 1012.0 |
| 20260507151525 | 14 | 9 | 1.6 | 6.4 | 0.00 | 0.76 | 0.56 | 49 | 1012.1 |
| 20260507150024 | 14 | 17 | 0.0 | 6.4 | 0.00 | 0.76 | 0.56 | 61 | 1012.1 |
| 20260507144518 | 13 | 284 | 1.6 | 4.8 | 0.00 | 0.76 | 0.56 | 60 | 1012.0 |
| 20260507143023 | 12 | 9 | 1.6 | 4.8 | 0.00 | 0.76 | 0.56 | 65 | 1012.0 |
| 20260507141516 | 12 | 53 | 1.6 | 6.4 | 0.00 | 0.76 | 0.56 | 65 | 1012.1 |
| 20260507140015 | 11 | 23 | 1.6 | 8.0 | 0.00 | 0.76 | 0.56 | 69 | 1012.0 |
| 20260507134514 | 11 | 39 | 1.6 | 4.8 | 0.00 | 0.76 | 0.56 | 76 | 1012.4 |
| 20260507133013 | 10 | 49 | 0.0 | 3.2 | 0.00 | 0.76 | 0.56 | 80 | 1012.2 |
| 20260507131517 | 11 | 349 | 0.0 | 3.2 | 0.00 | 0.76 | 0.56 | 85 | 1012.2 |
| 20260507130021 | 10 | 28 | 0.0 | 4.8 | 0.00 | 0.76 | 0.56 | 84 | 1012.1 |
| 20260507124511 | 10 | 26 | 0.0 | 3.2 | 0.00 | 0.76 | 0.56 | 88 | 1012.3 |
| 20260507123010 | 9 | 32 | 0.0 | 0.0 | 0.00 | 0.76 | 0.56 | 91 | 1012.1 |
| 20260507121507 | 9 | 32 | 0.0 | 0.0 | 0.00 | 0.76 | 0.56 | 92 | 1012.1 |
| 20260507120005 | 9 | 61 | 0.0 | 3.2 | 0.00 | 0.76 | 0.56 | 93 | 1012.2 |
| 20260507114503 | 9 | 61 | 0.0 | 0.0 | 0.00 | 0.76 | 0.56 | 94 | 1011.9 |
| 20260507113001 | 9 | 61 | 0.0 | 0.0 | 0.00 | 0.76 | 0.56 | 94 | 1011.6 |
| 20260507111603 | 9 | 61 | 0.0 | 0.0 | 0.00 | 0.76 | 0.56 | 94 | 1011.7 |
| 20260507110059 | 9 | 61 | 0.0 | 0.0 | 0.00 | 0.76 | 0.56 | 94 | 1011.3 |
| 20260507104556 | 9 | 61 | 0.0 | 0.0 | 0.00 | 0.76 | 0.56 | 94 | 1011.2 |
| 20260507103053 | 9 | 61 | 0.0 | 0.0 | 0.03 | 0.76 | 0.56 | 94 | 1010.9 |
| 20260507101555 | 9 | 61 | 0.0 | 0.0 | 0.03 | 0.76 | 0.56 | 94 | 1010.7 |
| 20260507100050 | 9 | 61 | 0.0 | 0.0 | 0.08 | 0.76 | 0.56 | 94 | 1010.7 |
| 20260507094549 | 10 | 61 | 0.0 | 0.0 | 0.10 | 0.76 | 0.56 | 94 | 1010.6 |
| 20260507093053 | 10 | 56 | 0.0 | 3.2 | 0.15 | 0.71 | 0.53 | 93 | 1010.4 |
| 20260507091547 | 10 | 243 | 0.0 | 0.0 | 0.20 | 0.71 | 0.53 | 94 | 1010.4 |
| 20260507090045 | 10 | 236 | 0.0 | 0.0 | 0.20 | 0.69 | 0.48 | 94 | 1010.3 |
| 20260507084547 | 10 | 115 | 0.0 | 0.0 | 0.20 | 0.66 | 0.46 | 94 | 1010.3 |
| 20260507083044 | 10 | 115 | 0.0 | 0.0 | 0.15 | 0.58 | 0.38 | 93 | 1010.3 |
| 20260507081543 | 10 | 115 | 0.0 | 0.0 | 0.10 | 0.51 | 0.30 | 93 | 1010.5 |
| 20260507080042 | 10 | 115 | 0.0 | 0.0 | 0.18 | 0.48 | 0.28 | 93 | 1010.6 |
| 20260507074541 | 10 | 115 | 0.0 | 0.0 | 0.20 | 0.46 | 0.25 | 93 | 1010.5 |
| 20260507073040 | 10 | 118 | 0.0 | 0.0 | 0.18 | 0.43 | 0.23 | 93 | 1010.4 |
| 20260507071600 | 10 | 118 | 0.0 | 0.0 | 0.18 | 0.41 | 0.20 | 92 | 1010.2 |
| 20260507070037 | 10 | 118 | 0.0 | 0.0 | 0.10 | 0.30 | 0.10 | 91 | 1010.6 |
| 20260507064533 | 11 | 121 | 0.0 | 0.0 | 0.05 | 0.25 | 0.05 | 91 | 1010.0 |
| 20260507063034 | 11 | 121 | 0.0 | 0.0 | 0.05 | 0.25 | 0.05 | 90 | 1009.8 |
| 20260507061530 | 11 | 196 | 0.0 | 0.0 | 0.03 | 0.23 | 0.03 | 90 | 1010.3 |
| 20260507060030 | 11 | 183 | 0.0 | 0.0 | 0.00 | 0.20 | 0.00 | 89 | 1010.0 |
| 20260507054524 | 12 | 67 | 0.0 | 0.0 | 0.00 | 0.20 | 0.00 | 89 | 1009.5 |
| 20260507053022 | 12 | 67 | 0.0 | 0.0 | 0.00 | 0.20 | 0.00 | 88 | 1009.7 |
| 20260507051528 | 12 | 68 | 0.0 | 1.6 | 0.00 | 0.20 | 0.00 | 89 | 1009.8 |
| 20260507050020 | 12 | 51 | 0.0 | 0.0 | 0.00 | 0.20 | 0.00 | 90 | 1009.6 |
| 20260507044515 | 13 | 38 | 0.0 | 1.6 | 0.00 | 0.20 | 0.00 | 91 | 1009.8 |
| 20260507043014 | 13 | 50 | 0.0 | 0.0 | 0.00 | 0.20 | 0.00 | 92 | 1009.8 |
| 20260507041512 | 13 | 43 | 0.0 | 1.6 | 0.00 | 0.20 | 0.00 | 92 | 1009.8 |
| 20260507040009 | 13 | 127 | 0.0 | 0.0 | 0.00 | 0.20 | 0.20 | 93 | 1009.6 |
| 20260507034519 | 13 | 149 | 0.0 | 0.0 | 0.00 | 0.20 | 0.20 | 94 | 1009.2 |
| 20260507033015 | 13 | 149 | 0.0 | 0.0 | 0.00 | 0.20 | 0.20 | 94 | 1009.2 |
| 20260507031507 | 14 | 149 | 0.0 | 0.0 | 0.00 | 0.20 | 0.20 | 94 | 1009.3 |
| 20260507030007 | 14 | 149 | 0.0 | 0.0 | 0.00 | 0.20 | 0.20 | 94 | 1009.7 |
| 20260507024509 | 14 | 149 | 0.0 | 0.0 | 0.03 | 0.20 | 0.20 | 95 | 1009.6 |
| 20260507023013 | 14 | 149 | 0.0 | 0.0 | 0.05 | 0.20 | 0.20 | 95 | 1009.6 |
| 20260507021505 | 14 | 149 | 0.0 | 0.0 | 0.05 | 0.20 | 0.20 | 95 | 1009.7 |
| 20260507020006 | 14 | 262 | 0.0 | 0.0 | 0.05 | 0.20 | 0.20 | 95 | 1009.7 |
| 20260507014508 | 14 | 254 | 0.0 | 0.0 | 0.03 | 0.18 | 0.18 | 94 | 1009.2 |
| 20260507013003 | 14 | 254 | 0.0 | 0.0 | 0.00 | 0.15 | 0.15 | 94 | 1009.2 |
| 20260507011505 | 14 | 254 | 0.0 | 0.0 | 0.00 | 0.15 | 0.15 | 94 | 1009.2 |
| 20260507010003 | 14 | 254 | 0.0 | 0.0 | 0.00 | 0.15 | 0.15 | 94 | 1009.1 |
| 20260507004502 | 14 | 254 | 0.0 | 0.0 | 0.00 | 0.15 | 0.15 | 94 | 1009.0 |
| 20260507003002 | 15 | 254 | 0.0 | 0.0 | 0.00 | 0.15 | 0.15 | 94 | 1008.9 |
| 20260507001500 | 15 | 254 | 0.0 | 0.0 | 0.00 | 0.15 | 0.15 | 94 | 1008.8 |
| 20260506234559 | 15 | 231 | 0.0 | 0.0 | 0.00 | 0.15 | 0.15 | 94 | 1008.6 |
| 20260506233100 | 15 | 221 | 0.0 | 0.0 | 0.00 | 0.15 | 0.15 | 94 | 1008.8 |
| 20260506231602 | 15 | 221 | 0.0 | 0.0 | 0.00 | 0.15 | 0.15 | 94 | 1008.9 |
| 20260506230059 | 15 | 221 | 0.0 | 0.0 | 0.00 | 0.15 | 0.15 | 94 | 1008.6 |
| 20260506224556 | 15 | 221 | 0.0 | 1.6 | 0.00 | 0.15 | 0.15 | 94 | 1008.6 |
| 20260506223058 | 15 | 215 | 0.0 | 3.2 | 0.00 | 0.15 | 0.15 | 93 | 1008.4 |
| 20260506221557 | 15 | 219 | 0.0 | 4.8 | 0.00 | 0.15 | 0.15 | 93 | 1008.4 |
| 20260506220056 | 15 | 184 | 0.0 | 4.8 | 0.00 | 0.15 | 0.15 | 93 | 1008.2 |
| 20260506214603 | 15 | 267 | 0.0 | 4.8 | 0.00 | 0.15 | 0.15 | 93 | 1008.1 |
| 20260506213055 | 15 | 267 | 0.0 | 4.8 | 0.00 | 0.15 | 0.15 | 93 | 1008.1 |
| 20260506211600 | 15 | 246 | 0.0 | 3.2 | 0.00 | 0.15 | 0.15 | 93 | 1008.1 |
| 20260506210055 | 15 | 204 | 0.0 | 4.8 | 0.00 | 0.15 | 0.15 | 93 | 1007.7 |
| 20260506204553 | 15 | 263 | 0.0 | 3.2 | 0.03 | 0.15 | 0.15 | 92 | 1007.9 |
| 20260506203050 | 15 | 206 | 0.0 | 6.4 | 0.03 | 0.15 | 0.15 | 92 | 1008.0 |
| 20260506201549 | 15 | 189 | 0.0 | 1.6 | 0.03 | 0.15 | 0.15 | 91 | 1008.1 |
| 20260506200050 | 15 | 59 | 0.0 | 6.4 | 0.03 | 0.15 | 0.15 | 91 | 1008.3 |
| 20260506194546 | 15 | 263 | 0.0 | 6.4 | 0.00 | 0.13 | 0.13 | 90 | 1008.5 |
| 20260506193044 | 15 | 213 | 0.0 | 4.8 | 0.00 | 0.13 | 0.13 | 90 | 1008.8 |
| 20260506191551 | 15 | 197 | 1.6 | 8.0 | 0.00 | 0.13 | 0.13 | 89 | 1008.7 |
| 20260506190043 | 15 | 262 | 0.0 | 4.8 | 0.03 | 0.13 | 0.13 | 90 | 1008.7 |
| 20260506184541 | 15 | 240 | 0.0 | 6.4 | 0.05 | 0.13 | 0.13 | 89 | 1008.9 |
| 20260506183040 | 15 | 189 | 0.0 | 9.7 | 0.05 | 0.13 | 0.13 | 89 | 1009.1 |
| 20260506181544 | 15 | 281 | 3.2 | 6.4 | 0.08 | 0.13 | 0.13 | 89 | 1009.4 |
| 20260506180046 | 15 | 281 | 0.0 | 3.2 | 0.08 | 0.10 | 0.10 | 89 | 1009.6 |
| 20260506174537 | 15 | 281 | 0.0 | 3.2 | 0.08 | 0.08 | 0.08 | 89 | 1009.4 |
| 20260506173041 | 15 | 221 | 0.0 | 4.8 | 0.08 | 0.08 | 0.08 | 88 | 1009.4 |
| 20260506171535 | 16 | 243 | 0.0 | 4.8 | 0.05 | 0.05 | 0.05 | 86 | 1009.6 |
| 20260506170032 | 16 | 263 | 0.0 | 3.2 | 0.03 | 0.03 | 0.03 | 85 | 1009.8 |
| 20260506164530 | 16 | 259 | 0.0 | 6.4 | 0.00 | 0.00 | 0.00 | 81 | 1010.2 |
| 20260506163028 | 17 | 263 | 0.0 | 8.0 | 0.00 | 0.00 | 0.00 | 77 | 1010.7 |
| 20260506161533 | 17 | 265 | 1.6 | 8.0 | 0.00 | 0.00 | 0.00 | 75 | 1010.5 |